Theta_e
348 349 347 347 345 344 348 348 349 349 348 349 349 349 349 349 348 347 348 348 349 351 347 351 349 347 345 345 344 344 343 343 343 344 343 343 342 340 341 341 339 340 338 341 344 346 346 347 346 345 344 344 345 343 347 345 342 341 340 341 342 335
346 347 347 345 345 345 347 346 348 350 351 351 350 350 351 349 349 347 348 347 347 343 344 344 346 347 347 349 347 345 345 344 343 344 344 343 344 344 342 340 339 340 341 340 341 348 349 348 347 344 346 344 345 346 346 344 342 339 337 340 341 338
346 346 345 344 344 342 343 343 343 346 348 348 352 350 348 347 346 344 345 342 344 347 348 347 346 346 349 349 350 346 346 345 344 344 343 344 344 345 344 341 340 339 340 341 341 343 344 346 347 347 346 346 347 346 344 344 344 343 335 341 340 342
344 343 342 343 343 344 342 343 342 343 346 347 347 345 345 345 343 344 342 347 348 349 349 350 344 343 344 346 348 346 346 346 346 344 344 344 344 344 344 341 342 339 340 339 337 340 338 343 347 347 347 347 347 341 343 342 341 340 341 338 339 343
342 342 343 342 340 340 343 341 342 345 346 343 344 343 344 344 345 346 347 350 348 348 348 347 349 350 349 348 346 346 346 347 347 347 345 347 345 343 344 341 338 336 332 333 337 340 341 339 342 343 344 341 342 344 342 342 339 337 339 342 344 345
341 341 341 340 340 340 343 343 344 345 345 345 343 344 345 343 346 348 347 348 348 348 349 349 349 350 350 350 347 345 346 348 349 347 344 345 343 344 344 341 342 338 340 340 337 338 341 340 340 339 338 341 342 343 342 339 340 341 342 340 347 345
341 343 342 341 341 340 341 344 345 345 343 342 343 345 342 343 347 348 348 348 348 349 349 348 349 351 350 352 352 351 353 346 347 348 348 350 345 345 340 340 341 340 341 338 337 338 339 340 340 337 338 337 339 340 341 341 341 340 342 341 345 345
341 341 342 342 342 339 340 344 346 344 344 342 342 342 343 345 347 346 348 350 349 350 348 347 349 349 350 350 347 350 346 344 346 345 347 347 345 348 344 343 343 339 337 339 339 341 340 339 340 342 339 337 336 339 341 339 341 340 338 339 341 345
340 341 343 342 341 341 344 345 345 345 344 344 344 342 342 346 347 349 349 351 351 351 348 349 349 348 348 348 348 349 347 347 348 348 348 347 346 344 345 343 345 342 340 340 339 341 339 339 341 341 339 337 337 337 338 340 341 339 340 340 340 345
341 342 343 343 343 343 344 344 344 346 343 346 347 349 349 349 350 350 349 351 350 349 349 348 348 347 346 348 348 349 348 348 347 349 349 348 348 347 345 344 343 341 340 340 339 340 340 340 338 340 339 339 340 341 342 340 338 339 340 341 341 341
342 343 342 342 344 345 345 345 347 348 349 348 348 347 349 350 349 350 351 351 351 349 350 350 348 346 347 346 346 348 347 348 346 348 349 348 349 348 347 346 345 344 344 343 345 343 341 341 340 338 339 337 337 340 339 341 340 340 339 340 340 341
343 344 345 344 346 346 347 348 348 348 347 349 351 349 347 349 348 349 348 348 348 349 348 347 347 346 347 346 347 347 347 348 346 346 348 348 347 348 346 345 345 347 348 344 346 345 346 344 343 340 340 338 339 339 339 339 339 338 339 339 340 340
345 347 346 346 347 348 346 346 345 347 349 350 351 351 349 349 349 348 349 348 348 347 348 347 347 346 346 348 347 348 347 347 348 348 349 347 347 348 348 347 347 347 345 345 344 344 345 345 343 342 343 341 341 340 340 339 340 341 342 338 348 349
347 347 348 348 348 346 347 345 345 346 348 350 349 348 348 348 347 347 348 347 347 347 346 347 347 347 346 346 348 348 347 346 347 347 347 348 346 347 345 345 345 344 342 341 341 342 341 342 341 342 342 342 342 343 342 342 341 341 340 338 340 342
344 344 344 345 346 348 347 343 345 348 349 350 349 348 348 349 348 348 348 346 347 347 346 346 347 347 348 347 347 346 346 346 348 348 347 348 345 346 346 345 344 343 344 342 341 342 342 341 342 341 341 343 343 342 343 342 342 342 339 341 342 342
341 340 342 342 340 344 344 348 346 347 349 349 347 348 348 348 348 346 346 346 346 346 346 346 346 346 347 348 346 345 346 349 348 349 348 348 348 346 346 345 346 345 342 342 342 342 342 341 342 342 343 343 343 343 343 342 342 342 342 343 340 343
336 336 337 337 341 339 340 347 347 349 349 348 347 346 346 348 347 347 345 346 345 346 346 346 347 347 348 348 345 346 346 349 349 348 348 348 347 346 346 346 346 346 345 341 341 340 342 343 341 340 343 343 343 343 343 343 343 342 343 343 343 343
337 339 341 338 340 339 344 345 346 345 347 345 348 346 347 348 346 345 345 345 345 345 345 345 346 346 349 348 346 347 347 347 346 346 346 346 346 347 347 345 343 345 343 341 337 338 338 340 341 341 340 340 342 342 343 343 344 342 341 341 343 343
337 337 339 340 341 344 345 346 345 345 345 345 346 345 346 344 343 345 344 344 344 345 344 344 345 345 346 343 344 344 345 344 344 343 343 342 343 344 344 344 342 341 343 340 339 339 340 340 339 340 340 341 342 342 342 342 342 343 343 343 343 343
338 338 339 340 339 344 344 342 342 342 341 341 343 342 344 343 344 342 343 344 343 344 343 344 343 344 344 343 342 342 342 343 342 342 341 342 341 340 340 340 340 339 339 340 342 340 340 340 339 339 339 341 343 344 343 342 343 343 342 343 343 343
337 333 337 339 341 341 340 341 340 339 339 340 340 341 341 342 342 342 343 342 342 342 342 342 342 342 342 341 342 342 342 341 342 342 340 340 340 340 341 340 339 339 338 337 337 341 341 342 338 335 338 338 339 341 341 341 343 343 343 342 341 340
336 339 338 337 341 343 341 341 339 338 339 339 339 338 338 341 341 340 341 341 342 342 342 341 341 342 341 341 341 340 341 340 340 340 339 340 339 338 339 339 338 336 338 336 336 338 340 340 333 330 328 329 331 334 338 340 342 342 343 343 342 341
334 336 340 339 340 340 341 343 342 339 338 337 340 340 339 339 339 338 338 338 338 339 339 338 338 339 338 339 339 338 338 337 336 336 335 334 334 334 334 335 335 335 334 336 335 337 338 339 331 332 332 328 324 323 329 330 339 341 341 339 339 340
337 339 339 341 339 343 343 343 343 342 342 340 337 337 338 337 337 337 336 336 335 336 336 336 336 336 336 335 336 335 336 335 335 334 333 332 332 332 333 333 333 333 334 330 331 333 336 337 334 331 322 324 325 324 320 323 326 331 334 334 335 337
338 339 339 340 342 342 341 340 339 340 340 339 339 337 335 333 333 333 332 331 331 333 332 331 331 330 330 330 331 332 332 333 332 332 332 331 330 329 331 331 330 330 331 329 327 329 332 335 334 334 329 324 322 321 320 324 327 327 331 331 333 336
337 338 339 339 340 340 339 337 336 335 334 333 332 332 329 329 329 329 328 330 329 328 327 327 326 326 326 327 327 328 329 329 329 328 329 329 329 328 328 328 328 328 327 329 327 325 327 331 333 333 334 333 331 325 322 326 324 318 328 330 331 331
334 335 336 336 338 338 337 336 335 334 334 334 330 329 330 329 328 328 328 327 326 326 325 324 324 325 325 325 326 326 327 327 327 326 326 326 326 326 326 326 326 325 325 326 325 323 324 327 330 332 332 333 332 331 331 326 321 322 319 325 328 329
332 332 333 334 335 336 333 332 333 332 332 332 330 327 327 327 327 327 326 325 325 324 324 323 323 323 324 324 324 324 325 325 324 324 323 324 323 324 325 325 326 325 325 324 323 321 322 324 322 323 327 327 328 329 330 329 329 323 320 318 320 327
331 331 331 331 331 331 332 332 331 331 328 329 329 327 327 327 326 326 325 323 322 322 322 322 321 322 322 322 322 322 322 322 322 321 321 321 322 322 322 323 323 322 322 321 321 321 320 320 321 320 321 322 323 324 325 327 327 326 322 318 318 320
328 328 328 329 329 329 330 330 329 330 328 327 326 325 325 324 324 325 323 321 321 320 320 320 321 320 321 321 321 321 320 320 320 320 320 320 321 320 320 321 322 321 320 318 320 319 318 319 320 320 320 319 318 319 320 321 323 322 323 323 319 319
326 326 327 326 326 326 327 328 327 326 325 325 325 324 322 322 322 323 321 320 320 319 320 318 319 320 320 320 321 320 319 318 319 319 318 318 319 318 319 320 320 320 319 318 317 317 318 318 318 318 318 318 317 317 316 316 317 318 318 317 317 318
324 324 325 325 324 325 325 325 325 324 323 323 323 322 321 320 321 321 321 319 319 318 317 318 318 318 319 319 318 318 318 318 317 318 318 318 318 318 318 318 317 317 317 316 316 315 316 314 315 315 315 316 317 317 318 317 317 317 316 316 316 315
321 323 323 324 323 323 323 324 323 322 321 321 321 320 320 320 320 319 319 318 317 316 316 315 316 316 316 317 316 316 316 316 316 317 317 317 317 317 317 316 315 315 314 314 313 313 313 313 314 313 313 315 315 315 315 317 317 316 316 316 315 312
320 321 322 322 322 321 322 322 322 321 320 320 319 319 319 318 319 318 318 317 317 315 315 315 315 314 315 315 314 315 315 315 315 316 316 316 317 317 317 315 315 314 314 314 314 314 313 313 313 313 314 312 313 314 315 316 315 314 313 312 311 311
320 320 321 321 321 320 319 320 320 320 319 318 317 317 317 318 318 317 317 316 315 315 314 314 313 314 315 314 314 313 313 313 313 314 314 315 315 316 316 316 314 315 315 315 315 314 313 314 313 313 313 313 313 314 314 314 313 313 313 312 311 311
319 319 319 318 318 318 318 318 317 317 317 317 316 316 316 316 316 316 316 315 314 315 315 314 314 313 313 313 313 312 312 312 313 313 313 313 313 314 314 314 312 312 313 315 314 313 313 313 313 313 313 313 313 312 314 313 313 313 313 313 312 311
318 318 318 317 317 317 317 316 316 316 316 315 315 315 314 315 315 315 315 315 314 314 315 314 313 313 312 312 313 312 311 311 311 312 312 312 312 312 312 312 311 310 311 313 313 312 312 311 312 312 312 312 311 312 312 311 312 312 312 312 312 311
Wind_Speed
10 11 12 11 9 9 10 12 12 12 12 10 11 11 11 11 11 9 8 8 8 8 5 7 9 7 10 7 7 5 5 5 5 6 6 5 5 3 2 1 1 2 3 4 5 4 7 9 7 7 7 9 9 7 7 7 3 3 4 3 2 7
10 12 10 9 8 7 7 10 10 10 9 10 10 10 10 7 7 6 6 6 4 4 3 4 3 6 6 8 7 7 6 6 5 5 5 5 5 5 4 4 3 4 5 7 8 6 6 8 10 9 9 10 7 6 6 3 2 5 1 3 5 9
10 10 10 9 7 8 10 8 9 9 7 8 9 9 6 6 4 6 6 4 3 1 2 4 3 2 6 7 8 7 8 7 6 6 6 6 7 7 7 7 7 6 7 9 8 8 5 5 6 10 8 7 6 6 5 1 4 3 5 2 4 12
9 8 8 7 8 8 8 8 8 7 7 6 6 5 4 4 3 3 4 3 2 3 3 3 5 4 6 5 6 8 10 8 7 9 9 7 8 9 9 9 8 9 7 8 7 8 5 6 5 6 6 6 6 6 4 5 4 6 4 2 6 13
9 8 9 8 7 7 7 7 7 6 6 6 6 5 4 3 3 2 2 3 2 2 2 5 3 2 2 2 3 5 5 6 5 5 11 6 6 6 7 6 6 7 7 8 8 5 4 3 4 6 7 4 5 4 4 5 4 5 5 3 9 13
8 8 8 8 7 7 7 6 7 8 6 4 4 4 4 4 4 4 2 2 2 1 0 0 4 6 6 7 7 3 3 4 7 5 8 3 5 6 5 3 5 5 5 6 4 4 4 4 4 4 5 3 3 4 4 6 5 2 4 5 8 13
9 7 8 8 7 8 7 6 6 6 7 6 5 4 4 3 3 3 2 1 1 0 0 1 1 2 1 1 1 1 4 4 3 4 0 1 3 4 4 4 3 5 5 5 5 4 4 5 5 7 6 5 5 5 5 5 4 4 5 6 5 11
9 9 8 8 9 7 8 8 6 6 4 5 5 5 5 3 3 3 2 1 1 1 1 0 1 0 2 2 2 1 2 2 1 1 2 2 4 7 4 2 3 5 5 5 4 4 4 4 5 5 6 6 7 6 5 5 5 6 6 5 4 11
11 11 9 9 8 7 6 7 7 6 6 5 4 4 4 4 3 2 1 0 0 1 1 0 1 1 2 1 1 1 1 1 2 3 2 2 4 3 2 3 3 3 5 5 5 4 5 6 5 6 6 7 7 7 6 6 6 8 7 6 7 9
11 11 10 9 7 7 7 7 7 6 7 5 4 3 4 3 1 2 2 0 1 0 1 1 1 1 1 0 1 1 1 1 1 1 2 2 2 3 4 4 4 4 5 6 5 4 3 5 6 6 7 7 6 6 6 7 8 7 8 7 6 5
11 10 10 9 8 8 8 8 7 7 5 5 5 5 3 2 3 2 2 1 0 1 1 0 1 1 0 1 0 1 1 1 0 1 2 2 1 2 2 3 4 4 5 5 4 7 5 6 6 7 7 8 6 4 6 6 6 7 8 8 7 6
11 10 9 9 8 8 8 7 7 6 6 5 5 4 4 3 2 2 2 2 2 0 0 1 1 1 0 1 1 2 1 1 2 1 1 2 3 3 4 4 4 4 4 5 5 5 6 6 6 6 7 8 6 5 8 7 5 9 9 9 6 8
10 9 8 8 8 7 7 7 7 6 6 6 5 4 4 4 4 3 3 2 2 1 0 1 1 1 1 1 1 1 1 1 1 2 2 2 4 4 3 3 3 3 4 4 5 6 6 5 6 7 7 7 6 7 7 7 5 7 7 7 4 4
7 7 6 5 5 7 7 7 5 5 6 6 5 4 4 4 4 3 3 3 2 2 1 1 1 0 1 1 1 1 1 1 1 2 2 2 3 3 3 3 4 4 3 4 5 5 5 6 6 6 6 7 7 7 7 8 8 9 8 9 7 2
5 4 3 4 4 3 5 6 4 5 6 5 5 4 4 3 3 3 3 2 2 2 1 2 1 2 2 2 1 0 1 1 2 2 3 2 3 4 3 3 3 5 4 5 5 5 6 6 6 7 7 6 7 7 7 8 9 8 9 9 5 7
1 4 3 3 2 2 4 3 8 5 6 5 5 5 4 4 3 3 3 3 4 3 2 2 1 1 3 2 2 2 2 3 3 3 2 3 4 4 3 4 4 4 5 5 6 6 6 6 7 7 6 6 7 7 7 8 8 9 9 8 9 8
4 3 1 1 4 3 7 4 6 7 7 6 5 5 5 4 4 4 4 4 4 4 3 2 2 3 3 3 3 3 3 3 3 4 3 3 4 3 3 4 4 4 5 5 6 7 6 6 6 8 7 7 7 7 7 8 8 8 8 8 9 8
4 4 2 6 6 6 7 7 7 6 6 6 6 6 5 4 5 4 4 4 4 4 3 3 4 4 3 3 3 3 2 3 4 3 4 4 3 3 4 4 5 5 5 6 6 7 7 7 7 7 8 8 8 7 7 8 8 8 8 9 8 8
3 3 2 6 7 8 6 6 7 7 7 6 6 6 5 5 5 4 5 5 5 4 3 4 4 4 4 4 3 3 3 4 4 4 3 4 4 3 3 4 4 6 5 6 8 7 7 7 7 8 8 9 9 9 8 7 8 8 8 8 8 8
3 1 5 8 7 5 4 5 6 6 7 6 6 6 6 6 5 5 5 6 5 5 5 4 4 4 4 5 4 4 5 5 5 5 5 5 4 4 5 5 5 6 7 7 6 6 7 7 8 9 9 9 9 9 9 8 8 8 7 7 8 7
1 0 4 4 6 1 5 5 5 6 6 5 5 6 7 7 6 7 7 6 6 6 6 6 6 6 7 6 6 6 6 7 7 6 6 6 7 7 7 7 7 6 7 7 6 5 6 7 8 8 7 8 8 9 10 9 9 8 7 7 7 7
2 1 4 4 3 3 4 4 4 5 5 5 6 5 6 6 6 6 7 7 7 7 7 7 7 7 7 8 7 7 7 8 9 8 8 9 10 10 10 9 8 8 7 7 7 6 6 7 6 7 9 8 8 7 6 6 7 7 7 7 7 7
2 4 2 2 2 4 5 6 5 6 5 6 7 7 7 6 6 6 6 7 7 7 7 7 8 8 7 8 8 8 7 7 8 8 8 8 8 8 8 9 10 9 9 8 7 6 6 6 8 8 9 9 7 8 6 5 4 4 6 8 7 8
5 7 6 4 5 7 8 9 8 8 8 7 6 7 7 6 6 6 7 8 7 7 7 7 8 8 7 8 8 7 6 6 7 7 7 6 8 8 8 9 9 9 9 9 9 9 9 9 8 9 8 7 9 8 9 4 7 5 7 10 8 8
2 4 6 5 6 6 7 7 7 7 6 7 7 6 6 5 6 6 7 7 7 7 8 8 9 10 8 8 8 8 7 6 6 7 6 7 7 7 8 8 9 9 9 9 10 9 10 9 10 7 8 8 6 5 7 9 10 10 7 6 7 7
3 6 6 6 5 5 5 5 5 4 5 5 6 6 6 5 5 6 6 6 8 8 9 9 9 9 9 8 8 8 7 7 6 6 7 6 6 7 8 8 8 8 9 10 9 9 9 9 9 10 8 6 6 7 10 11 11 9 8 9 9 9
6 5 7 7 6 5 6 4 3 3 5 5 6 6 6 5 5 5 6 6 6 7 8 8 8 7 7 7 7 7 7 7 6 6 6 5 5 7 7 7 7 8 8 7 9 8 9 9 9 8 8 10 10 9 9 9 9 11 11 8 9 9
8 7 6 5 6 6 5 5 5 5 6 7 7 7 6 5 5 5 6 6 5 6 7 7 6 6 6 6 5 6 6 6 6 6 5 6 6 6 7 7 7 8 7 7 8 7 9 8 9 9 11 11 12 12 12 11 11 11 12 13 12 9
9 7 6 7 6 6 5 5 4 4 5 5 5 5 4 4 5 4 7 7 6 6 6 7 7 6 6 6 6 6 6 6 6 6 6 6 6 6 7 6 7 7 8 8 7 8 8 8 8 8 9 9 10 10 12 12 12 11 10 12 13 12
8 7 7 7 7 7 7 5 5 5 5 5 4 4 4 4 4 5 7 6 5 5 5 6 6 7 6 6 6 6 6 7 7 7 6 6 7 7 6 6 7 7 7 8 7 7 7 7 8 8 8 9 8 9 9 10 11 12 12 11 11 13
8 7 7 7 7 7 6 6 5 6 5 6 5 4 4 4 3 4 6 5 5 6 5 5 5 6 6 7 7 7 7 7 7 7 7 7 7 6 6 7 7 7 8 8 7 8 7 8 8 8 9 7 8 8 9 9 10 10 11 12 13 13
8 8 7 6 6 6 5 6 6 5 5 4 3 3 4 3 4 6 5 5 5 5 5 5 5 6 7 7 7 7 7 7 7 7 7 6 6 6 6 7 7 7 6 7 7 7 7 8 9 7 8 8 8 9 9 9 10 10 10 11 11 12
8 7 7 6 7 6 6 6 6 6 6 5 5 5 5 6 6 5 5 5 5 5 5 5 6 6 7 7 7 7 7 7 7 7 7 6 6 7 6 5 6 6 6 6 7 7 6 7 7 8 7 7 7 8 8 8 9 9 10 10 11 12
8 7 6 7 6 7 7 6 6 6 6 6 6 6 5 6 6 5 5 6 5 5 5 5 6 6 6 7 7 7 7 7 8 7 7 6 6 7 6 5 6 6 5 4 5 6 6 7 7 8 7 7 7 7 7 8 9 9 9 9 10 11
8 7 7 7 7 7 7 6 6 6 6 6 6 6 6 6 6 7 6 6 5 5 5 6 6 6 6 7 7 7 8 8 7 7 7 7 6 6 6 5 6 6 5 5 6 7 5 6 6 7 8 7 7 6 6 7 7 8 8 8 8 9
8 7 7 7 7 7 7 7 8 7 7 7 6 7 6 6 6 7 7 6 6 5 6 6 6 6 7 7 7 7 7 8 7 7 7 8 7 6 6 6 6 7 7 5 6 7 7 7 8 9 8 9 7 7 7 8 8 8 8 8 8 8
8 8 8 8 7 7 8 8 8 8 8 8 8 8 7 8 8 7 7 6 6 6 6 6 5 5 6 6 6 6 6 7 7 7 7 8 8 7 7 6 6 7 7 7 6 6 7 7 8 8 8 9 8 7 8 8 8 8 9 8 8 8
Wind_Direction
133 134 128 123 128 133 122 127 120 118 125 138 139 144 139 137 138 141 157 181 185 202 158 144 177 131 158 139 109 120 115 113 105 102 112 117 128 127 135 171 213 281 266 250 243 215 181 176 184 194 213 232 247 262 269 284 324 217 287 111 166 100
132 130 129 123 128 138 149 169 145 143 146 154 154 150 161 156 160 143 188 186 208 158 176 130 157 146 161 125 141 131 134 135 134 121 115 138 135 155 171 186 232 246 256 252 249 220 172 171 182 197 216 232 239 245 259 267 267 303 271 226 105 126
131 131 121 124 133 144 156 154 158 157 154 169 160 178 165 164 161 174 162 147 171 146 70 132 157 58 77 91 115 158 154 158 159 167 164 162 172 178 181 186 206 227 236 251 241 236 204 171 178 196 218 232 244 250 257 246 259 261 266 54 88 135
128 135 143 138 148 152 149 155 160 162 162 167 162 174 172 181 142 133 134 128 150 166 147 113 88 96 131 146 150 174 179 181 188 187 186 189 193 194 192 202 208 210 224 228 236 233 220 174 178 184 201 218 236 253 255 247 242 245 275 269 128 142
139 157 144 145 150 148 148 166 151 152 166 163 173 160 162 155 124 133 132 176 155 180 188 121 153 165 195 92 194 179 188 195 204 197 184 214 197 173 202 190 201 212 220 227 237 248 272 280 180 209 208 227 247 263 269 266 266 300 287 280 124 146
153 148 147 148 151 143 167 147 153 154 157 157 143 155 153 160 156 163 185 167 165 122 340 46 144 158 215 176 169 249 267 204 203 231 179 230 198 182 211 228 212 201 241 277 269 278 274 264 277 249 272 242 256 271 263 277 290 323 296 299 134 145
146 151 157 143 139 165 144 154 154 147 156 154 149 162 144 140 151 163 149 154 90 252 55 263 32 359 15 220 141 180 210 202 148 219 48 194 273 341 276 224 217 210 207 232 266 262 241 255 264 294 289 284 255 249 261 261 267 254 249 249 148 156
150 154 150 146 166 161 144 145 144 147 147 127 146 150 141 156 150 163 154 187 81 302 342 11 282 240 205 355 333 352 264 316 324 304 137 318 262 183 245 301 287 306 271 268 226 226 265 250 246 250 269 275 278 265 263 281 283 283 285 269 205 170
153 153 151 166 155 149 138 146 149 143 139 159 154 144 134 147 160 128 126 317 320 346 296 359 315 313 317 345 336 221 300 319 309 338 341 287 316 351 274 274 323 270 275 256 269 248 230 239 234 234 237 244 253 270 276 272 269 265 265 275 260 187
155 153 156 163 152 141 149 152 147 139 134 143 111 98 140 147 150 146 136 154 313 124 333 340 327 310 312 346 231 224 283 289 331 303 311 314 328 319 319 300 269 296 292 295 287 275 283 284 276 255 241 244 244 238 241 251 258 255 262 258 248 243
156 157 159 153 152 152 152 139 135 136 140 136 136 163 148 140 153 157 126 135 215 137 205 314 296 312 335 251 329 284 18 319 266 18 298 314 293 301 301 288 290 302 304 306 342 297 300 289 283 285 290 280 268 289 261 240 250 275 275 276 285 281
158 165 161 149 149 146 138 139 143 138 138 138 157 159 136 148 147 137 144 155 134 114 11 78 1 340 290 214 280 13 24 352 360 309 352 340 327 315 301 318 315 304 300 289 294 298 295 287 287 291 292 294 306 287 282 285 335 295 287 267 263 241
158 158 157 145 146 149 150 145 141 161 143 148 158 148 147 151 152 142 133 122 114 106 93 85 17 349 320 338 11 327 334 9 327 349 323 328 307 285 273 277 257 271 270 298 303 295 281 278 285 288 286 280 284 278 283 299 264 242 254 289 232 340
151 152 135 137 151 157 156 140 171 147 135 164 138 137 140 144 132 126 123 110 116 91 97 40 8 75 292 313 327 305 349 323 2 331 299 290 298 294 300 314 307 294 311 306 292 285 288 289 293 287 287 301 296 300 297 288 282 290 286 269 299 307
166 122 135 159 189 166 160 147 131 146 142 143 136 132 125 114 113 115 114 118 87 84 33 52 29 333 331 323 303 355 310 1 2 313 308 321 309 305 295 302 315 316 320 301 295 296 296 289 286 292 295 296 294 296 293 287 287 287 290 291 265 250
337 148 154 110 314 310 6 174 142 145 131 137 125 120 117 109 104 102 96 90 74 65 49 43 352 335 309 324 341 340 344 10 342 308 328 325 299 300 330 314 322 315 310 306 308 299 298 303 296 290 291 295 288 283 280 282 284 284 284 293 288 296
108 41 293 4 188 215 179 200 130 130 123 122 119 118 105 97 86 72 68 73 73 57 44 52 4 1 345 334 340 343 353 348 326 333 324 317 305 321 320 326 318 321 304 304 297 292 289 293 296 290 287 281 283 283 279 279 280 280 285 280 283 273
154 122 192 190 211 179 200 169 138 120 115 112 101 83 86 84 78 75 71 72 66 61 39 37 19 18 359 328 354 357 354 335 322 327 315 314 306 317 331 328 319 309 309 302 291 298 303 299 298 298 289 287 284 280 278 280 279 279 276 276 274 275
189 158 165 250 234 171 171 127 113 118 116 107 94 93 88 86 79 72 70 73 74 70 57 38 35 22 10 348 353 0 347 346 332 324 309 311 323 333 337 317 310 310 298 292 300 296 298 301 299 299 297 293 286 279 276 273 275 278 281 282 278 283
216 130 173 227 204 219 119 110 114 112 105 95 96 86 77 76 75 70 68 65 62 60 54 44 35 30 24 6 5 3 7 351 342 332 340 340 339 339 337 328 324 309 304 303 298 308 303 304 301 296 289 281 277 274 271 266 264 265 271 266 272 272
67 353 250 299 298 63 106 106 107 103 95 94 90 90 79 67 63 56 49 53 55 49 45 39 32 31 26 15 13 10 5 13 357 2 352 358 353 346 343 337 325 317 316 312 309 325 317 312 307 296 295 292 285 272 260 250 247 257 256 269 273 275
2 104 236 226 287 349 76 92 102 87 85 78 79 77 80 70 62 61 49 45 39 34 31 32 26 25 19 15 11 11 13 15 15 10 10 15 12 10 6 359 351 332 329 323 315 320 326 317 302 315 317 313 300 286 274 253 241 244 257 263 267 268
114 273 39 241 144 82 65 68 82 79 76 78 60 62 75 79 79 75 65 54 48 40 35 33 27 24 24 21 11 9 12 12 20 8 8 11 6 7 4 0 358 350 339 330 318 322 334 331 318 320 307 292 307 320 302 281 206 280 276 273 276 276
220 171 189 92 108 94 83 79 77 77 78 78 91 92 93 97 93 79 65 51 45 39 41 43 37 34 33 29 23 16 9 15 15 15 11 4 359 0 359 354 353 344 343 332 335 329 334 328 327 327 317 328 312 302 299 321 339 281 278 282 271 277
139 60 76 70 83 101 103 93 89 90 94 108 116 112 104 93 75 69 65 55 53 47 44 46 41 39 37 29 23 18 7 9 8 2 358 357 354 352 348 347 348 342 339 334 322 324 317 320 322 324 312 316 314 299 320 323 328 304 295 303 289 271
95 58 69 72 69 64 58 68 85 112 131 132 107 79 71 76 76 68 70 67 49 45 49 43 43 40 34 32 28 20 12 360 5 1 354 343 341 341 342 344 344 339 333 333 327 315 311 317 322 319 311 314 306 304 311 316 312 305 314 295 297 296
73 71 54 47 40 49 59 65 72 75 77 106 98 84 79 66 61 66 75 67 53 45 46 47 40 34 33 27 23 15 7 355 350 352 340 335 354 355 351 350 352 347 343 340 340 322 323 326 327 319 334 332 321 307 301 305 307 311 305 306 302 303
76 70 60 53 57 50 61 57 58 58 59 65 74 83 79 71 69 66 71 73 63 57 46 40 38 28 29 23 16 14 9 13 360 6 348 9 6 4 355 355 353 353 352 349 341 333 328 331 340 326 334 333 331 324 315 304 298 296 301 303 301 298
79 81 75 65 63 71 66 70 68 75 84 77 86 93 89 85 86 76 80 77 61 53 55 46 38 34 30 32 26 26 25 24 10 7 355 14 6 4 6 2 1 3 358 357 354 351 340 338 332 332 332 332 325 321 321 315 312 316 313 307 303 306
92 84 80 76 66 63 65 64 65 71 85 99 107 90 80 85 83 84 81 77 70 58 51 49 50 38 32 38 35 28 29 25 16 9 5 13 12 9 6 0 26 8 8 2 357 355 344 338 343 340 341 333 332 334 330 329 329 336 332 327 316 316
90 90 83 78 74 67 63 55 68 66 69 88 98 96 95 86 88 104 94 83 67 58 53 55 48 48 38 34 36 30 16 17 25 14 11 11 16 10 355 14 21 13 17 11 9 356 350 359 348 345 345 340 332 333 332 324 327 332 328 322 322 319
93 86 80 76 75 76 75 75 75 75 79 62 71 98 100 110 91 92 92 90 81 72 63 59 51 48 41 29 29 25 23 20 25 18 16 16 18 9 7 23 25 17 19 15 14 0 1 2 353 351 349 344 341 340 333 334 338 332 327 323 320 314
86 84 77 74 72 69 70 71 77 79 78 79 82 89 96 87 79 89 89 89 87 77 68 59 46 46 42 33 29 29 26 25 21 23 21 19 20 22 9 38 24 24 23 18 15 6 9 358 0 356 348 345 346 338 335 339 334 334 333 333 324 318
95 84 84 78 77 74 67 67 76 83 86 85 88 81 76 88 85 91 88 74 77 74 70 61 58 47 34 33 39 36 32 31 25 24 22 17 21 25 15 22 34 21 24 20 11 9 10 3 1 0 355 347 348 338 339 345 344 334 336 331 329 326
103 96 90 90 79 77 77 71 72 80 86 96 97 83 66 79 88 88 86 86 86 79 73 65 54 49 40 42 41 43 38 30 31 26 27 25 19 30 16 21 32 14 22 6 14 9 8 358 1 357 356 351 342 349 347 347 338 335 334 333 327 326
104 98 93 90 88 87 87 84 82 85 90 91 97 101 100 85 82 78 88 93 87 78 70 68 60 53 49 43 37 42 40 40 32 31 29 29 28 26 23 24 27 24 17 8 10 14 5 1 6 354 1 350 345 350 357 356 345 343 336 333 326 326
114 116 111 103 101 94 87 88 90 87 86 87 83 88 95 94 90 90 90 90 89 77 70 68 67 59 56 51 45 40 45 40 39 34 32 33 32 28 28 26 26 25 17 5 4 15 7 8 5 356 5 352 353 350 6 352 347 342 336 334 333 330